Location: ????????
(60.5616°N, 46.8254°E)
Time: 16:16:43
(UTC+00:00)

ADEOS II - Pass Details

Date: 18 February 2020
Orbit: 800 x 801 km, 98.5° (Epoch: 30 March)

Event Time Altitude Azimuth Distance (km) Brightness Sun altitude
Rises 23:19:48 0° 18° (NNE) 3,328 6.2 -35.2°
Reaches altitude 10° 23:22:11 10° 23° (NNE) 2,393 5.3 -35.0°
Enters shadow 23:25:38 38° 45° (NE) 1,213 3.3 -34.8°
